When you browse on this site, cookies collect data to enhance your experience and personalize the content and advertising you see.
Visit our Privacy Policy to learn more. By continuing to use the site, you agree to this use of cookies and data.
  • In Czech Republic
  • List of Countries
  • For 7 days
  • Water Temperature
  • Satellite Maps
  • Weather Map
  • Weather Widgets
  • user-avatar
    Login

    Hourly Weather Lincoln

    Today, 10 December, Monday

    Time Temperature Precipitation Wind Pressure Humidity
    00:00 +4°C° 0 mm 4 mps 760 mmHg 83%
    01:00 +4°C° 0 mm 4 mps 760 mmHg 83%
    02:00 +4°C° 0 mm 4 mps 761 mmHg 84%
    03:00 +4°C° 0 mm 4 mps 761 mmHg 84%
    04:00 +3°C° 0 mm 4 mps 761 mmHg 85%
    05:00 +3°C° 0 mm 4 mps 761 mmHg 85%
    06:00 +3°C° 0 mm 4 mps 762 mmHg 86%
    07:00 +3°C° 0 mm 4 mps 762 mmHg 87%
    08:00 +3°C° 0 mm 4 mps 763 mmHg 87%
    09:00 +3°C° 0 mm 3 mps 763 mmHg 87%
    10:00 +4°C° 0 mm 4 mps 763 mmHg 84%
    11:00 +5°C° 0 mm 4 mps 764 mmHg 80%
    12:00 +6°C° 0 mm 4 mps 764 mmHg 77%
    13:00 +5°C° 0 mm 3 mps 764 mmHg 78%
    14:00 +5°C° 0 mm 3 mps 764 mmHg 79%
    15:00 +6°C° 0 mm 2 mps 764 mmHg 80%
    16:00 +5°C° 0 mm 2 mps 764 mmHg 82%
    17:00 +5°C° 0 mm 2 mps 764 mmHg 83%
    18:00 +4°C° 0 mm 2 mps 765 mmHg 84%
    19:00 +4°C° 0 mm 2 mps 765 mmHg 84%
    20:00 +4°C° 0 mm 2 mps 765 mmHg 84%
    21:00 +5°C° 0 mm 1 mps 765 mmHg 83%
    22:00 +5°C° 0 mm 1 mps 765 mmHg 83%
    23:00 +4°C° 0 mm 1 mps 765 mmHg 83%

    Tomorrow, 11 December, Tuesday

    Time Temperature Precipitation Wind Pressure Humidity
    00:00 +4°C° 0 mm 1 mps 764 mmHg 83%
    01:00 +4°C° 0 mm 1 mps 764 mmHg 84%
    02:00 +4°C° 0 mm 1 mps 764 mmHg 84%
    03:00 +4°C° 0 mm 1 mps 764 mmHg 85%
    04:00 +4°C° 0 mm 1 mps 763 mmHg 85%
    05:00 +4°C° 0 mm 1 mps 763 mmHg 85%
    06:00 +4°C° 0 mm 1 mps 763 mmHg 86%
    07:00 +4°C° 0 mm 1 mps 763 mmHg 85%
    08:00 +4°C° 0 mm 1 mps 763 mmHg 85%
    09:00 +3°C° 0 mm 2 mps 763 mmHg 85%
    10:00 +4°C° 0 mm 2 mps 763 mmHg 83%
    11:00 +5°C° 0 mm 2 mps 762 mmHg 81%
    12:00 +4°C° 0 mm 3 mps 762 mmHg 80%
    13:00 +4°C° 0 mm 3 mps 762 mmHg 81%
    14:00 +4°C° 0 mm 3 mps 761 mmHg 82%
    15:00 +4°C° 0 mm 3 mps 761 mmHg 83%
    16:00 +4°C° 0 mm 3 mps 761 mmHg 84%
    17:00 +4°C° 0 mm 4 mps 761 mmHg 84%
    18:00 +4°C° 0 mm 4 mps 760 mmHg 84%
    19:00 +4°C° 0.1 mm 4 mps 760 mmHg 85%
    20:00 +4°C° 0.1 mm 4 mps 760 mmHg 86%
    21:00 +3°C° 0.1 mm 5 mps 760 mmHg 87%
    22:00 +3°C° 0.2 mm 5 mps 759 mmHg 88%
    23:00 +5°C° 0.2 mm 5 mps 759 mmHg 90%

    Day after tomorrow, 12 December, Wednesday

    Time Temperature Precipitation Wind Pressure Humidity
    00:00 +5°C° 0.2 mm 5 mps 759 mmHg 91%
    01:00 +5°C° 0.4 mm 5 mps 759 mmHg 91%
    02:00 +5°C° 0.4 mm 5 mps 758 mmHg 92%
    03:00 +5°C° 0.4 mm 5 mps 758 mmHg 93%
    04:00 +5°C° 0.5 mm 5 mps 758 mmHg 93%
    05:00 +5°C° 0.5 mm 5 mps 758 mmHg 94%
    06:00 +5°C° 0.5 mm 5 mps 758 mmHg 94%
    07:00 +5°C° 0.3 mm 5 mps 758 mmHg 94%
    08:00 +5°C° 0.3 mm 5 mps 758 mmHg 93%
    09:00 +5°C° 0.3 mm 5 mps 758 mmHg 93%
    10:00 +6°C° 0.2 mm 5 mps 758 mmHg 92%
    11:00 +6°C° 0.2 mm 5 mps 758 mmHg 91%
    12:00 +6°C° 0.2 mm 5 mps 758 mmHg 89%
    13:00 +6°C° 0.1 mm 5 mps 758 mmHg 88%
    14:00 +6°C° 0.1 mm 5 mps 758 mmHg 87%
    15:00 +6°C° 0.1 mm 5 mps 758 mmHg 85%
    16:00 +6°C° 0 mm 5 mps 758 mmHg 85%
    17:00 +5°C° 0 mm 5 mps 758 mmHg 84%
    18:00 +4°C° 0 mm 6 mps 757 mmHg 84%
    19:00 +4°C° 0 mm 6 mps 757 mmHg 83%
    20:00 +4°C° 0 mm 6 mps 757 mmHg 82%
    21:00 +3°C° 0 mm 6 mps 757 mmHg 81%
    22:00 +3°C° 0.1 mm 6 mps 757 mmHg 79%
    23:00 +3°C° 0.1 mm 6 mps 756 mmHg 78%

    13 December, Thursday

    Time Temperature Precipitation Wind Pressure Humidity
    00:00 +3°C° 0.1 mm 6 mps 756 mmHg 76%
    01:00 +2°C° 0 mm 7 mps 755 mmHg 76%
    02:00 +2°C° 0 mm 7 mps 754 mmHg 76%
    03:00 +2°C° 0 mm 7 mps 754 mmHg 76%
    04:00 +2°C° 0.1 mm 7 mps 753 mmHg 76%
    05:00 +2°C° 0.1 mm 7 mps 753 mmHg 76%
    06:00 +1°C° 0.1 mm 8 mps 752 mmHg 76%
    07:00 +1°C° 0.3 mm 8 mps 752 mmHg 76%
    08:00 +1°C° 0.3 mm 8 mps 751 mmHg 76%
    09:00 +1°C° 0.3 mm 9 mps 751 mmHg 76%
    10:00 +1°C° 0.2 mm 8 mps 750 mmHg 77%
    11:00 +1°C° 0.2 mm 8 mps 750 mmHg 78%
    12:00 +1°C° 0.2 mm 8 mps 750 mmHg 79%
    13:00 +3°C° 0.1 mm 7 mps 750 mmHg 80%
    14:00 +3°C° 0.1 mm 7 mps 750 mmHg 81%
    15:00 +3°C° 0.1 mm 6 mps 750 mmHg 82%
    16:00 +3°C° 0 mm 6 mps 750 mmHg 84%
    17:00 +2°C° 0 mm 6 mps 750 mmHg 85%
    18:00 +2°C° 0 mm 5 mps 750 mmHg 87%
    19:00 +2°C° 0 mm 5 mps 751 mmHg 87%
    20:00 +3°C° 0 mm 4 mps 752 mmHg 87%
    21:00 +3°C° 0 mm 4 mps 752 mmHg 87%
    22:00 +3°C° 0 mm 4 mps 752 mmHg 88%
    23:00 +3°C° 0 mm 4 mps 752 mmHg 88%

    14 December, Friday

    Time Temperature Precipitation Wind Pressure Humidity
    00:00 +3°C° 0 mm 4 mps 752 mmHg 89%
    01:00 +3°C° 0 mm 4 mps 752 mmHg 89%
    02:00 +3°C° 0 mm 4 mps 751 mmHg 89%
    03:00 +1°C° 0 mm 4 mps 751 mmHg 90%
    04:00 +3°C° 0 mm 4 mps 751 mmHg 89%
    05:00 +2°C° 0 mm 5 mps 750 mmHg 89%
    06:00 +2°C° 0 mm 5 mps 750 mmHg 88%
    07:00 +2°C° 0 mm 6 mps 749 mmHg 88%
    08:00 +2°C° 0 mm 6 mps 749 mmHg 87%
    09:00 +3°C° 0 mm 7 mps 748 mmHg 87%
    10:00 +3°C° 0 mm 7 mps 747 mmHg 85%
    11:00 +3°C° 0 mm 7 mps 746 mmHg 84%
    12:00 +4°C° 0 mm 8 mps 746 mmHg 83%
    13:00 +4°C° 0 mm 7 mps 745 mmHg 83%
    14:00 +4°C° 0 mm 7 mps 745 mmHg 84%
    15:00 +4°C° 0 mm 6 mps 745 mmHg 84%
    16:00 +4°C° 0 mm 6 mps 746 mmHg 86%
    17:00 +5°C° 0 mm 5 mps 746 mmHg 88%
    18:00 +5°C° 0 mm 4 mps 747 mmHg 90%
    19:00 +5°C° 0 mm 4 mps 748 mmHg 90%
    20:00 +4°C° 0 mm 3 mps 749 mmHg 91%
    21:00 +5°C° 0 mm 2 mps 750 mmHg 92%
    22:00 +4°C° 0 mm 3 mps 750 mmHg 92%
    23:00 +4°C° 0 mm 3 mps 751 mmHg 92%

    15 December, Saturday

    Time Temperature Precipitation Wind Pressure Humidity
    00:00 +4°C° 0 mm 3 mps 752 mmHg 92%
    01:00 +3°C° 0 mm 3 mps 752 mmHg 93%
    02:00 +3°C° 0 mm 3 mps 752 mmHg 93%
    03:00 +3°C° 0 mm 3 mps 753 mmHg 93%
    04:00 +3°C° 0 mm 3 mps 753 mmHg 93%
    05:00 +4°C° 0 mm 4 mps 753 mmHg 93%
    06:00 +4°C° 0 mm 4 mps 753 mmHg 93%
    07:00 +3°C° 0 mm 5 mps 753 mmHg 93%
    08:00 +5°C° 0 mm 5 mps 753 mmHg 92%
    09:00 +5°C° 0 mm 5 mps 753 mmHg 92%
    10:00 +5°C° 0 mm 6 mps 753 mmHg 91%
    11:00 +5°C° 0 mm 6 mps 752 mmHg 90%
    12:00 +6°C° 0 mm 7 mps 752 mmHg 89%
    13:00 +6°C° 0.2 mm 8 mps 750 mmHg 89%
    14:00 +7°C° 0.2 mm 8 mps 749 mmHg 89%
    15:00 +7°C° 0.2 mm 9 mps 748 mmHg 89%
    16:00 +8°C° 1.1 mm 10 mps 747 mmHg 89%
    17:00 +9°C° 1.1 mm 10 mps 746 mmHg 89%
    18:00 +11°C° 1.1 mm 11 mps 745 mmHg 89%
    19:00 +9°C° 0.7 mm 10 mps 745 mmHg 83%
    20:00 +8°C° 0.7 mm 10 mps 745 mmHg 76%
    21:00 +8°C° 0.7 mm 10 mps 745 mmHg 69%
    22:00 +7°C° 0 mm 10 mps 746 mmHg 68%
    23:00 +7°C° 0 mm 10 mps 747 mmHg 67%
    Show more